TimeCST,TemperatureF,Dew PointF,Humidity,Sea Level PressureIn,VisibilityMPH,Wind Direction,Wind SpeedMPH,Gust SpeedMPH,PrecipitationIn,Events,Conditions,WindDirDegrees,DateUTC
12:56 AM,37.0,27.0,67,30.38,10.0,North,10.4,-,N/A,,Clear,360,2013-11-10 06:56:00
1:56 AM,37.0,26.1,65,30.39,10.0,NNW,3.5,-,N/A,,Clear,340,2013-11-10 07:56:00
2:56 AM,33.1,25.0,72,30.39,10.0,Calm,Calm,-,N/A,,Clear,0,2013-11-10 08:56:00
3:56 AM,32.0,27.0,82,30.39,10.0,Calm,Calm,-,N/A,,Mostly Cloudy,0,2013-11-10 09:56:00
4:56 AM,33.1,28.0,82,30.40,10.0,South,3.5,-,N/A,,Overcast,190,2013-11-10 10:56:00
5:56 AM,33.1,27.0,78,30.40,10.0,Calm,Calm,-,N/A,,Overcast,0,2013-11-10 11:56:00
6:56 AM,28.9,24.1,82,30.40,10.0,Calm,Calm,-,N/A,,Clear,0,2013-11-10 12:56:00
7:56 AM,30.9,27.0,85,30.41,10.0,Calm,Calm,-,N/A,,Mostly Cloudy,0,2013-11-10 13:56:00
8:56 AM,37.9,28.0,68,30.40,10.0,SSE,8.1,-,N/A,,Clear,160,2013-11-10 14:56:00
9:56 AM,39.9,26.1,58,30.39,10.0,South,11.5,-,N/A,,Clear,170,2013-11-10 15:56:00
10:56 AM,44.1,26.1,49,30.37,10.0,South,13.8,-,N/A,,Clear,170,2013-11-10 16:56:00
11:56 AM,46.9,26.1,44,30.33,10.0,South,13.8,-,N/A,,Clear,180,2013-11-10 17:56:00
12:56 PM,50.0,26.1,39,30.29,10.0,South,13.8,21.9,N/A,,Clear,190,2013-11-10 18:56:00
1:56 PM,51.1,28.0,41,30.26,10.0,South,12.7,23.0,N/A,,Overcast,180,2013-11-10 19:56:00
2:56 PM,51.1,30.0,44,30.24,10.0,South,12.7,-,N/A,,Overcast,190,2013-11-10 20:56:00
3:56 PM,52.0,30.9,45,30.21,10.0,South,12.7,21.9,N/A,,Overcast,190,2013-11-10 21:56:00
4:56 PM,48.9,32.0,52,30.19,10.0,South,9.2,-,N/A,,Clear,190,2013-11-10 22:56:00
5:56 PM,46.0,33.1,61,30.18,10.0,South,12.7,-,N/A,,Clear,190,2013-11-10 23:56:00
6:56 PM,44.1,34.0,68,30.20,10.0,SSW,8.1,-,N/A,,Clear,200,2013-11-11 00:56:00
7:56 PM,43.0,34.0,71,30.18,10.0,South,9.2,-,N/A,,Clear,190,2013-11-11 01:56:00
8:56 PM,43.0,35.1,74,30.17,10.0,SSW,9.2,-,N/A,,Clear,200,2013-11-11 02:56:00
9:56 PM,43.0,35.1,74,30.14,10.0,SSW,15.0,-,N/A,,Clear,200,2013-11-11 03:56:00
10:56 PM,44.1,36.0,73,30.14,10.0,West,4.6,-,N/A,,Clear,280,2013-11-11 04:56:00
11:56 PM,43.0,36.0,76,30.13,10.0,SW,6.9,-,N/A,,Clear,230,2013-11-11 05:56:00